"Figure 2g. PM10 (for density = 1 g cm^-3 and 2.65 g cm^-3), PM2.5 and PM1 mass concentrations from the GRIMM OPC data (hourly moving average).",,,,
,,,,
,,,,
,,,,
Time,"PM10, density = 2.65 g cm^-3 (�g m^-3)","PM10, density = 1 g cm^-3 (�g m^-3)","PM2.5, density = 1 g cm^-3 (�g m^-3)","PM1, density = 1 g cm^-3 (�g m^-3)"
25/10/2018 10:39,515.87073,194.6682,53.98715,16.66862
25/10/2018 10:40,515.42946,194.50168,53.96385,16.64716
25/10/2018 10:41,515.79194,194.63847,53.98718,16.63771
25/10/2018 10:42,514.32338,194.0843,53.91794,16.6174
25/10/2018 10:43,513.70657,193.85154,53.87759,16.60587
25/10/2018 10:44,513.80644,193.88922,53.77747,16.59464
25/10/2018 10:45,513.70011,193.8491,53.69372,16.57598
25/10/2018 10:46,519.32981,195.97351,53.84628,16.59061
25/10/2018 10:47,599.92583,226.3871,57.65884,17.15577
25/10/2018 10:48,612.23861,231.03344,58.06202,17.21632
25/10/2018 10:49,619.55563,233.79458,58.26487,17.24172
25/10/2018 10:50,628.09793,237.01809,58.49901,17.27114
25/10/2018 10:51,633.78075,239.16255,58.59156,17.28108
25/10/2018 10:52,641.39806,242.03701,58.77881,17.30451
25/10/2018 10:53,647.76414,244.4393,58.88513,17.32154
25/10/2018 10:54,649.76842,245.19563,58.93641,17.32981
25/10/2018 10:55,651.37045,245.80017,58.9178,17.32563
25/10/2018 10:56,656.88691,247.88185,59.19666,17.36323
25/10/2018 10:57,660.15415,249.11477,59.18465,17.36755
25/10/2018 10:58,663.21972,250.27159,59.17745,17.37064
25/10/2018 10:59,666.19271,251.39348,59.30194,17.39065
25/10/2018 11:00,669.93639,252.80619,59.34645,17.40928
25/10/2018 11:01,677.74385,255.7524,59.4592,17.43881
25/10/2018 11:02,693.31293,261.62752,59.64885,17.46669
25/10/2018 11:03,695.53775,262.46708,59.74264,17.49077
25/10/2018 11:04,698.73269,263.67271,59.81404,17.53377
25/10/2018 11:05,703.89087,265.61919,59.98192,17.59739
25/10/2018 11:06,706.39956,266.56587,60.08853,17.66914
25/10/2018 11:07,707.40859,266.94664,60.11195,17.72278
25/10/2018 11:08,708.88072,267.50216,60.19046,17.77989
25/10/2018 11:09,709.10974,267.58858,60.24498,17.82122
25/10/2018 11:10,710.40076,268.07576,60.3074,17.86191
25/10/2018 11:11,724.37886,273.35051,60.59459,17.9295
25/10/2018 11:12,727.60982,274.56974,60.67863,17.96903
25/10/2018 11:13,727.04579,274.3569,60.67717,17.99308
25/10/2018 11:14,729.44856,275.26361,60.63486,18.00022
25/10/2018 11:15,746.13606,281.56078,60.92412,18.05446
25/10/2018 11:16,749.5329,282.8426,60.94991,18.06845
25/10/2018 11:17,751.88952,283.7319,60.96264,18.07948
25/10/2018 11:18,753.66873,284.4033,60.97825,18.08958
25/10/2018 11:19,755.66207,285.1555,61.03007,18.10418
25/10/2018 11:20,750.21394,283.0996,60.62816,18.05256
25/10/2018 11:21,743.78596,280.67395,60.57598,18.05493
25/10/2018 11:22,743.78138,280.67222,60.59893,18.06794
25/10/2018 11:23,744.17071,280.81914,60.56276,18.07808
25/10/2018 11:24,744.72231,281.02729,60.55303,18.08874
25/10/2018 11:25,744.14637,280.80995,60.46758,18.08902
25/10/2018 11:26,744.06672,280.77989,60.4304,18.09469
25/10/2018 11:27,744.78446,281.05074,60.40746,18.09983
25/10/2018 11:28,745.34072,281.26065,60.34954,18.10354
25/10/2018 11:29,735.79345,277.6579,60.12266,18.08888
25/10/2018 11:30,734.90887,277.3241,60.12702,18.12582
25/10/2018 11:31,735.67141,277.61185,60.19667,18.17861
25/10/2018 11:32,707.3004,266.90581,59.70038,18.16412
25/10/2018 11:33,703.33879,265.41086,59.68535,18.22996
25/10/2018 11:34,703.52431,265.48087,59.75553,18.33053
25/10/2018 11:35,703.68264,265.54062,59.88448,18.44697
25/10/2018 11:36,705.38072,266.18141,60.03253,18.56807
25/10/2018 11:37,719.92359,271.66928,60.47285,18.7502
25/10/2018 11:38,721.3644,272.21298,60.76094,18.91004
25/10/2018 11:39,725.16569,273.64743,61.04678,19.07697
25/10/2018 11:40,726.4572,274.13479,61.23889,19.21677
25/10/2018 11:41,728.01805,274.72379,61.43643,19.35982
25/10/2018 11:42,727.99548,274.71527,61.53626,19.47829
25/10/2018 11:43,797.61869,300.98819,63.21496,19.81216
25/10/2018 11:44,801.21318,302.3446,63.44131,19.91876
25/10/2018 11:45,806.83517,304.4661,63.81508,20.04726
25/10/2018 11:46,799.79984,301.81126,63.64634,20.09024
25/10/2018 11:47,718.57751,271.16133,59.87248,19.59214
25/10/2018 11:48,705.86111,266.36268,59.46877,19.59011
25/10/2018 11:49,698.97223,263.76311,59.24985,19.61008
25/10/2018 11:50,711.79628,268.60237,59.88561,19.74001
25/10/2018 11:51,712.06729,268.70464,59.89901,19.77561
25/10/2018 11:52,706.25493,266.51129,59.74337,19.78766
25/10/2018 11:53,748.22755,282.35002,61.48199,20.07505
25/10/2018 11:54,806.2861,304.25891,63.49122,20.40495
25/10/2018 11:55,810.64709,305.90456,63.60476,20.44012
25/10/2018 11:56,815.73691,307.82525,63.57571,20.44871
25/10/2018 11:57,822.78914,310.48647,63.83768,20.49624
25/10/2018 11:58,823.69467,310.82818,63.9282,20.51983
25/10/2018 11:59,821.71811,310.08231,63.85513,20.51169
25/10/2018 12:00,820.0332,309.44649,63.68455,20.48339
25/10/2018 12:01,815.14238,307.6009,63.56662,20.46219
25/10/2018 12:02,802.18893,302.7128,63.37044,20.44015
25/10/2018 12:03,800.81675,302.195,63.20668,20.40929
25/10/2018 12:04,804.46829,303.57294,63.15431,20.36931
25/10/2018 12:05,804.37129,303.53634,62.9937,20.30033
25/10/2018 12:06,814.89368,307.50705,63.25253,20.29125
25/10/2018 12:07,827.24508,312.16795,63.44376,20.26839
25/10/2018 12:08,831.6669,313.83656,63.55898,20.24602
25/10/2018 12:09,832.46083,314.13616,63.48881,20.2047
25/10/2018 12:10,843.54526,318.31896,63.55853,20.1854
25/10/2018 12:11,830.78624,313.50424,63.16145,20.1062
25/10/2018 12:12,830.00791,313.21053,63.07999,20.07508
25/10/2018 12:13,831.19469,313.65837,63.08641,20.06129
25/10/2018 12:14,842.89867,318.07497,63.43239,20.11159
25/10/2018 12:15,832.45141,314.13261,63.28705,20.09689
25/10/2018 12:16,836.54129,315.67596,63.42168,20.12627
25/10/2018 12:17,840.43436,317.14504,63.60284,20.16321
25/10/2018 12:18,840.68188,317.23844,63.60975,20.18432
25/10/2018 12:19,842.30971,317.85272,63.65662,20.20619
25/10/2018 12:20,843.70326,318.37859,63.74236,20.23819
25/10/2018 12:21,843.50433,318.30352,63.74729,20.25504
25/10/2018 12:22,843.49511,318.30004,63.76318,20.27416
25/10/2018 12:23,843.912,318.45736,63.83027,20.29023
25/10/2018 12:24,844.82859,318.80324,63.86676,20.31338
25/10/2018 12:25,846.04261,319.26136,63.97796,20.34344
25/10/2018 12:26,849.64649,320.62132,64.20517,20.39659
25/10/2018 12:27,854.71165,322.5327,64.41297,20.45533
25/10/2018 12:28,862.75727,325.56878,64.84379,20.54626
25/10/2018 12:29,866.01188,326.79693,65.02801,20.59408
25/10/2018 12:30,868.62679,327.78369,65.13888,20.62186
25/10/2018 12:31,870.87472,328.63197,65.28121,20.64466
25/10/2018 12:32,915.67874,345.53915,66.8707,20.87739
25/10/2018 12:33,931.55959,351.53192,67.36621,20.93188
25/10/2018 12:34,933.61372,352.30706,67.42565,20.9018
25/10/2018 12:35,934.5754,352.66996,67.45538,20.86195
25/10/2018 12:36,935.01326,352.83519,67.48132,20.82798
25/10/2018 12:37,919.93681,347.14596,67.15935,20.72858
25/10/2018 12:38,919.45169,346.9629,67.0755,20.66072
25/10/2018 12:39,917.5062,346.22875,67.099,20.60765
25/10/2018 12:40,919.68906,347.05248,67.17484,20.58009
25/10/2018 12:41,920.20745,347.24809,67.22925,20.54629
25/10/2018 12:42,923.99931,348.67898,67.39079,20.54229
25/10/2018 12:43,857.99937,323.77335,65.96465,20.32611
25/10/2018 12:44,859.8034,324.45411,66.12413,20.36322
25/10/2018 12:45,921.07044,347.57375,68.44462,20.75356
25/10/2018 12:46,950.5912,358.71366,69.55216,20.96956
25/10/2018 12:47,1023.85041,386.35865,72.42643,21.45993
25/10/2018 12:48,1067.5283,402.84087,73.97999,21.76618
25/10/2018 12:49,1078.83312,407.10684,74.71363,21.94214
25/10/2018 12:50,1067.72679,402.91577,74.55668,22.00845
25/10/2018 12:51,1070.26966,403.87534,75.05089,22.17532
25/10/2018 12:52,1075.06942,405.68657,75.6429,22.36323
25/10/2018 12:53,1033.42489,389.97166,74.38376,22.27873
25/10/2018 12:54,979.83413,369.74873,72.74259,22.14446
25/10/2018 12:55,977.60262,368.90665,73.10364,22.31285
25/10/2018 12:56,970.93374,366.39009,73.36666,22.47131
25/10/2018 12:57,964.85237,364.09523,73.57137,22.61979
25/10/2018 12:58,966.58253,364.74812,74.05944,22.80034
25/10/2018 12:59,971.7991,366.71664,74.50236,22.97918
25/10/2018 13:00,1003.51509,378.68494,76.08534,23.31835
25/10/2018 13:01,1038.76841,391.98808,77.49604,23.62882
25/10/2018 13:02,1048.14934,395.52805,78.20938,23.83045
25/10/2018 13:03,1055.5632,398.32574,78.89181,24.03177
25/10/2018 13:04,1060.48513,400.18307,79.5535,24.23262
25/10/2018 13:05,1063.97277,401.49916,80.11694,24.4349
25/10/2018 13:06,1057.61943,399.10167,80.19337,24.54464
25/10/2018 13:07,1048.39577,395.62104,80.34129,24.6762
25/10/2018 13:08,1047.05035,395.11334,80.59063,24.81019
25/10/2018 13:09,1058.12499,399.29245,81.27002,24.99756
25/10/2018 13:10,1053.45527,397.53029,81.52435,25.12389
25/10/2018 13:11,1055.60578,398.3418,81.80906,25.25561
25/10/2018 13:12,1058.82886,399.55806,82.20931,25.39645
25/10/2018 13:13,1062.49874,400.94292,82.51081,25.52714
25/10/2018 13:14,1051.05637,396.62505,82.49334,25.59485
25/10/2018 13:15,1045.93126,394.69104,82.54893,25.67206
25/10/2018 13:16,1043.00785,393.58787,82.76774,25.76533
25/10/2018 13:17,1044.5331,394.16343,82.98409,25.86851
25/10/2018 13:18,1047.43991,395.26034,83.28987,25.96302
25/10/2018 13:19,1046.97377,395.08444,83.47149,26.04447
25/10/2018 13:20,1079.30597,407.28527,84.82151,26.30188
25/10/2018 13:21,1086.39897,409.96188,85.14574,26.4043
25/10/2018 13:22,1089.24272,411.03499,85.43281,26.50501
25/10/2018 13:23,1089.81594,411.2513,85.52726,26.57674
25/10/2018 13:24,1094.31509,412.94909,85.69363,26.64736
25/10/2018 13:25,1095.40372,413.35989,85.81087,26.69451
25/10/2018 13:26,1105.96,417.3434,85.83383,26.71949
25/10/2018 13:27,1102.49374,416.03537,85.79751,26.73824
25/10/2018 13:28,1134.29389,428.03543,87.11919,26.95456
25/10/2018 13:29,1137.58747,429.27829,87.2754,26.9956
25/10/2018 13:30,1135.04096,428.31734,87.34699,27.02938
25/10/2018 13:31,1135.26905,428.40342,87.44074,27.06726
25/10/2018 13:32,1093.82311,412.76344,86.15475,26.89678
25/10/2018 13:33,1084.82463,409.36779,85.94923,26.89169
25/10/2018 13:34,1094.31117,412.94761,86.36102,26.97908
25/10/2018 13:35,1148.3866,433.35343,87.71022,27.20139
25/10/2018 13:36,1164.3708,439.38521,88.3249,27.29263
25/10/2018 13:37,1171.87917,442.21855,88.67132,27.34755
25/10/2018 13:38,1173.58217,442.8612,88.82668,27.37542
25/10/2018 13:39,1175.60732,443.6254,88.82324,27.38022
25/10/2018 13:40,1174.5491,443.22608,88.79645,27.37396
25/10/2018 13:41,1172.97598,442.63245,88.69956,27.35974
25/10/2018 13:42,1169.59702,441.35737,88.58262,27.33989
25/10/2018 13:43,1166.15022,440.05669,88.47359,27.3124
25/10/2018 13:44,1169.86474,441.45839,88.72288,27.31812
25/10/2018 13:45,1107.04232,417.75182,86.41258,26.92189
25/10/2018 13:46,1082.17053,408.36624,85.57513,26.73537
25/10/2018 13:47,1012.3859,382.03242,82.96318,26.26904
25/10/2018 13:48,972.33733,366.91975,81.6286,25.99263
25/10/2018 13:49,963.95404,363.75624,81.14935,25.85925
25/10/2018 13:50,956.70561,361.02099,80.70695,25.72146
25/10/2018 13:51,949.89922,358.45253,80.19018,25.57419
25/10/2018 13:52,943.88977,356.18482,79.66657,25.4246
25/10/2018 13:53,938.06821,353.988,79.18537,25.27596
25/10/2018 13:54,932.37308,351.8389,78.90922,25.15774
25/10/2018 13:55,929.60909,350.79588,78.52335,25.02792
25/10/2018 13:56,926.17477,349.49991,78.1683,24.89405
25/10/2018 13:57,921.38192,347.69129,77.72366,24.74042
25/10/2018 13:58,916.44322,345.82763,77.15679,24.57865
25/10/2018 13:59,911.01767,343.78025,76.76923,24.44766
25/10/2018 14:00,885.60312,334.18986,75.64938,24.21277
25/10/2018 14:01,854.46331,322.43898,74.50645,23.97549
25/10/2018 14:02,851.97314,321.4993,74.15431,23.86085
25/10/2018 14:03,847.88999,319.95849,73.85941,23.76281
25/10/2018 14:04,855.21492,322.72261,73.79369,23.70166
25/10/2018 14:05,859.10795,324.19168,73.67628,23.6142
25/10/2018 14:06,860.84183,324.84597,73.69315,23.55855
25/10/2018 14:07,862.52266,325.48025,73.62436,23.48397
25/10/2018 14:08,861.5652,325.11894,73.41708,23.39794
25/10/2018 14:09,855.4192,322.7997,72.90993,23.2804
25/10/2018 14:10,849.44059,320.54362,72.61547,23.19957
25/10/2018 14:11,843.81651,318.42132,72.34758,23.12246
25/10/2018 14:12,837.66065,316.09836,72.07004,23.04784
25/10/2018 14:13,835.83102,315.40793,71.97921,22.99966
25/10/2018 14:14,845.42165,319.02704,72.14823,22.98752
25/10/2018 14:15,848.8301,320.31324,72.1712,22.95278
25/10/2018 14:16,850.26721,320.85555,72.0726,22.9046
25/10/2018 14:17,844.44416,318.65817,71.87161,22.83222
25/10/2018 14:18,840.03803,316.99548,71.59427,22.76039
25/10/2018 14:19,840.78459,317.2772,71.4558,22.70848
25/10/2018 14:20,809.16811,305.34646,70.12432,22.46623
25/10/2018 14:21,823.75009,310.84909,70.13474,22.41229
25/10/2018 14:22,829.14174,312.88367,70.22051,22.37026
25/10/2018 14:23,852.09811,321.54646,70.73081,22.39534
25/10/2018 14:24,856.74707,323.30078,70.92666,22.3815
25/10/2018 14:25,858.90205,324.11398,70.99647,22.3608
25/10/2018 14:26,851.13279,321.18218,71.00843,22.34456
25/10/2018 14:27,856.32892,323.14299,71.21902,22.34123
25/10/2018 14:28,826.61609,311.9306,69.91435,22.1147
25/10/2018 14:29,829.27364,312.93345,69.83188,22.05577
25/10/2018 14:30,844.64096,318.73244,70.06489,22.01963
25/10/2018 14:31,899.29357,339.35607,72.29372,22.3016
25/10/2018 14:32,959.13521,361.93781,73.59582,22.42541
25/10/2018 14:33,969.80073,365.96254,73.74056,22.37462
25/10/2018 14:34,970.03926,366.05255,73.49732,22.2484
25/10/2018 14:35,926.17489,349.49996,72.4025,21.98812
25/10/2018 14:36,927.40246,349.96319,72.14522,21.87471
25/10/2018 14:37,932.09369,351.73347,72.26364,21.8182
25/10/2018 14:38,961.27389,362.74486,72.96051,21.84233
25/10/2018 14:39,1102.2163,415.93068,74.7022,22.06024
25/10/2018 14:40,1128.88976,425.99614,75.41661,22.0958
25/10/2018 14:41,1159.1,437.39623,76.05666,22.13171
25/10/2018 14:42,1168.89004,441.09058,76.1698,22.07627
25/10/2018 14:43,1176.30981,443.8905,76.15628,21.99921
25/10/2018 14:44,1170.52381,441.7071,75.64866,21.86467
25/10/2018 14:45,1168.82764,441.06703,75.36802,21.77449
25/10/2018 14:46,1165.49912,439.81099,75.06483,21.68333
25/10/2018 14:47,1163.85898,439.19207,74.79238,21.60088
25/10/2018 14:48,1164.85479,439.56785,74.52827,21.51182
25/10/2018 14:49,1163.11611,438.91174,74.23093,21.42305
25/10/2018 14:50,1163.31666,438.98742,74.02563,21.35032
25/10/2018 14:51,1162.59874,438.7165,73.86982,21.27218
25/10/2018 14:52,1162.62836,438.72768,73.7683,21.20158
25/10/2018 14:53,1163.24555,438.96058,73.69202,21.12778
25/10/2018 14:54,1163.21754,438.95001,73.49502,21.03326
25/10/2018 14:55,1163.53339,439.06921,73.423,20.95757
25/10/2018 14:56,1166.21562,440.08137,73.39935,20.89288
25/10/2018 14:57,1187.90341,448.26544,73.90243,20.9299
25/10/2018 14:58,1194.66316,450.81629,74.12818,20.91318
25/10/2018 14:59,1201.47672,453.38744,74.29388,20.88894
25/10/2018 15:00,1200.23267,452.91799,74.18975,20.82944
25/10/2018 15:01,1199.03308,452.46531,74.13382,20.77595
25/10/2018 15:02,1195.94741,451.30091,74.03984,20.71224
25/10/2018 15:03,1198.15886,452.13542,73.90355,20.63716
25/10/2018 15:04,1207.45519,455.64347,74.10185,20.61017
25/10/2018 15:05,1212.31202,457.47623,74.12822,20.56004
25/10/2018 15:06,1210.40797,456.75772,73.8274,20.45083
25/10/2018 15:07,1209.43458,456.39041,73.56932,20.35389
25/10/2018 15:08,1210.32513,456.72647,73.51266,20.28844
25/10/2018 15:09,1209.81667,456.53459,73.57099,20.24004
25/10/2018 15:10,1215.66921,458.7431,73.67687,20.19624
25/10/2018 15:11,1221.5498,460.96219,73.79838,20.1546
25/10/2018 15:12,1228.09795,463.43319,73.97805,20.12923
25/10/2018 15:13,1231.21918,464.61101,74.09242,20.09806
25/10/2018 15:14,1242.60983,468.90937,74.53074,20.12638
25/10/2018 15:15,1258.98817,475.08988,75.09972,20.17605
25/10/2018 15:16,1264.32113,477.10231,75.33918,20.17706
25/10/2018 15:17,1271.63804,479.86341,75.68137,20.19137
25/10/2018 15:18,1278.46637,482.44014,76.10622,20.21709
25/10/2018 15:19,1284.55713,484.73854,76.51202,20.23803
25/10/2018 15:20,1290.81971,487.10178,76.99266,20.27988
25/10/2018 15:21,1276.95026,481.86802,77.17202,20.3024
25/10/2018 15:22,1281.39676,483.54595,77.58869,20.35922
25/10/2018 15:23,1270.53859,479.44852,77.67929,20.37216
25/10/2018 15:24,1280.93057,483.37003,78.33435,20.47054
25/10/2018 15:25,1294.24829,488.39558,79.12459,20.59395
25/10/2018 15:26,1302.83036,491.6341,79.80811,20.69608
25/10/2018 15:27,1307.58954,493.43001,80.21481,20.76238
25/10/2018 15:28,1308.05686,493.60636,80.60562,20.83273
25/10/2018 15:29,1310.10791,494.38034,81.12411,20.93406
25/10/2018 15:30,1303.73923,491.97707,81.41975,21.01257
25/10/2018 15:31,1255.30573,473.70027,79.58658,20.75077
25/10/2018 15:32,1203.56111,454.174,78.80316,20.66944
25/10/2018 15:33,1200.62128,453.06463,79.02255,20.73548
25/10/2018 15:34,1198.37331,452.21634,79.36454,20.82163
25/10/2018 15:35,1199.72756,452.72738,79.74652,20.92087
25/10/2018 15:36,1199.28728,452.56124,80.21197,21.02578
25/10/2018 15:37,1214.38146,458.25716,80.90064,21.15717
25/10/2018 15:38,1197.04704,451.71586,80.83093,21.18078
25/10/2018 15:39,1064.27444,401.613,79.62079,20.99295
25/10/2018 15:40,1049.88916,396.18459,79.53603,20.9947
25/10/2018 15:41,1033.22305,389.89549,79.63149,21.01482
25/10/2018 15:42,1039.25867,392.17308,80.35113,21.1383
25/10/2018 15:43,1045.68634,394.59862,81.11065,21.26653
25/10/2018 15:44,1054.76018,398.02271,81.78625,21.37266
25/10/2018 15:45,1063.89801,401.47095,82.46166,21.46727
25/10/2018 15:46,1074.04079,405.29841,83.16252,21.56808
25/10/2018 15:47,1083.1477,408.73498,83.78975,21.64108
25/10/2018 15:48,1088.09258,410.60097,84.27509,21.69703
25/10/2018 15:49,1096.7276,413.85947,84.86575,21.76989
25/10/2018 15:50,1106.72034,417.63032,85.43619,21.84616
25/10/2018 15:51,1131.85656,427.11568,86.4628,21.99533
25/10/2018 15:52,1145.11885,432.12032,87.11167,22.07133
25/10/2018 15:53,1156.05629,436.24766,87.67162,22.14534
25/10/2018 15:54,1166.30761,440.11608,88.25933,22.22994
25/10/2018 15:55,1176.82728,444.08577,88.82972,22.30658
25/10/2018 15:56,1184.42897,446.95433,89.23716,22.36861
25/10/2018 15:57,1174.18128,443.08727,89.2259,22.35328
25/10/2018 15:58,1179.0283,444.91634,89.65987,22.40643
25/10/2018 15:59,1182.68724,446.29707,89.99182,22.44461
25/10/2018 16:00,1186.45446,447.71867,90.26721,22.47859
25/10/2018 16:01,1193.75816,450.47478,90.6903,22.5347
25/10/2018 16:02,1198.45425,452.24689,90.98592,22.57413
25/10/2018 16:03,1201.11963,453.25269,91.3102,22.61494
25/10/2018 16:04,1183.20779,446.49351,91.01672,22.56152
25/10/2018 16:05,1177.02716,444.16119,91.04569,22.55136
25/10/2018 16:06,1178.83086,444.84183,91.24318,22.57423
25/10/2018 16:07,1180.53707,445.48569,91.48243,22.59571
25/10/2018 16:08,1182.55961,446.24891,91.61717,22.59732
25/10/2018 16:09,1183.03267,446.42742,91.73155,22.59414
25/10/2018 16:10,1187.46376,448.09953,91.82515,22.58587
25/10/2018 16:11,1194.20436,450.64316,92.10557,22.59521
25/10/2018 16:12,1199.41226,452.6084,92.32033,22.59276
25/10/2018 16:13,1202.59534,453.80956,92.36239,22.55951
25/10/2018 16:14,1189.48195,448.86112,91.89229,22.44004
25/10/2018 16:15,1178.85292,444.85016,91.55981,22.34628
25/10/2018 16:16,1178.53214,444.72911,91.47907,22.28668
25/10/2018 16:17,1177.04713,444.16873,91.35869,22.21924
25/10/2018 16:18,1177.21797,444.2332,91.18236,22.14581
25/10/2018 16:19,1173.87629,442.97218,90.90438,22.06015
25/10/2018 16:20,1171.66332,442.1371,90.57801,21.95966
25/10/2018 16:21,1169.32606,441.25512,90.23597,21.84872
25/10/2018 16:22,1161.20962,438.19231,89.63116,21.69036
25/10/2018 16:23,1152.11465,434.76025,88.94934,21.51581
25/10/2018 16:24,1136.9154,429.02468,88.05429,21.29691
25/10/2018 16:25,1123.05367,423.79384,87.09143,21.0679
25/10/2018 16:26,1114.90349,420.7183,86.3581,20.86845
25/10/2018 16:27,1109.10481,418.53012,85.69963,20.67788
25/10/2018 16:28,1105.22791,417.06714,85.14714,20.50318
25/10/2018 16:29,1100.46351,415.26925,84.54105,20.31653
25/10/2018 16:30,1094.02143,412.83828,83.9023,20.12881
25/10/2018 16:31,1089.98094,411.31356,83.23574,19.94399
25/10/2018 16:32,1081.87354,408.25416,82.47235,19.73268
25/10/2018 16:33,1070.16542,403.83601,81.73361,19.53707
25/10/2018 16:34,1064.00394,401.51092,81.03672,19.35573
25/10/2018 16:35,1055.32085,398.23428,80.30344,19.16105
25/10/2018 16:36,1043.95443,393.94507,79.32799,18.93431
25/10/2018 16:37,1022.81996,385.9698,78.12034,18.66847
25/10/2018 16:38,1012.9566,382.24778,77.18058,18.44421
25/10/2018 16:39,1006.47918,379.80346,76.57576,18.27167
25/10/2018 16:40,1000.62395,377.59394,75.91359,18.095
25/10/2018 16:41,995.96641,375.83638,75.21274,17.90697
25/10/2018 16:42,992.08445,374.37149,74.44218,17.71238
25/10/2018 16:43,988.04697,372.84791,73.72182,17.52473
25/10/2018 16:44,979.85452,369.75642,72.93395,17.33195
25/10/2018 16:45,970.64254,366.28021,72.17757,17.14224
25/10/2018 16:46,961.87977,362.9735,71.40789,16.94247
25/10/2018 16:47,954.70034,360.26428,70.71765,16.77799
25/10/2018 16:48,949.04236,358.12919,70.18896,16.63304
25/10/2018 16:49,940.76063,355.00401,69.52629,16.46319
25/10/2018 16:50,931.70387,351.58637,68.85829,16.29191
25/10/2018 16:51,910.65208,343.6423,67.84728,16.07585
25/10/2018 16:52,902.44034,340.54352,67.27917,15.93621
25/10/2018 16:53,895.87378,338.06558,66.74549,15.79813
25/10/2018 16:54,889.97525,335.83972,66.22208,15.65582
25/10/2018 16:55,881.55928,332.66388,65.61932,15.50669
25/10/2018 16:56,877.62244,331.17828,65.14693,15.37586
25/10/2018 16:57,871.44051,328.84547,64.54011,15.22401
25/10/2018 16:58,862.84108,325.60041,63.80065,15.06161
25/10/2018 16:59,855.15831,322.70125,63.24599,14.92112
25/10/2018 17:00,848.05217,320.01969,62.59429,14.76338
25/10/2018 17:01,839.47072,316.78141,61.83742,14.59106
25/10/2018 17:02,833.18797,314.41056,61.21559,14.43545
25/10/2018 17:03,826.50754,311.88964,60.6258,14.28337
25/10/2018 17:04,819.51638,309.25146,60.05279,14.13861
25/10/2018 17:05,813.40471,306.94517,59.48793,13.99872
25/10/2018 17:06,812.91878,306.7618,59.17407,13.90186
25/10/2018 17:07,811.17301,306.10302,58.79715,13.79596
25/10/2018 17:08,809.31891,305.40336,58.46871,13.70045
25/10/2018 17:09,807.16845,304.59187,58.09815,13.59992
25/10/2018 17:10,799.24391,301.60147,57.65209,13.49101
25/10/2018 17:11,789.6458,297.97955,57.06261,13.36321
25/10/2018 17:12,781.68426,294.97519,56.47893,13.23771
25/10/2018 17:13,774.49615,292.2627,56.02404,13.12598
25/10/2018 17:14,768.86345,290.13715,55.59586,13.02755
25/10/2018 17:15,764.18352,288.37114,55.15432,12.91722
25/10/2018 17:16,758.96401,286.40151,54.70983,12.81996
25/10/2018 17:17,758.36381,286.17502,54.45748,12.75158
25/10/2018 17:18,757.20276,285.73689,54.1832,12.6816
25/10/2018 17:19,755.0615,284.92887,53.90741,12.60704
25/10/2018 17:20,752.46258,283.94814,53.62247,12.5363
25/10/2018 17:21,749.36195,282.77809,53.37343,12.47209
25/10/2018 17:22,750.28332,283.12578,53.20474,12.41997
25/10/2018 17:23,751.32904,283.52039,53.14222,12.38629
25/10/2018 17:24,750.85148,283.34018,53.02692,12.35204
25/10/2018 17:25,749.84433,282.96012,52.90814,12.32242
25/10/2018 17:26,746.66934,281.76201,52.70204,12.27409
25/10/2018 17:27,746.39338,281.65788,52.60742,12.24703
25/10/2018 17:28,744.72714,281.02911,52.44667,12.20747
25/10/2018 17:29,743.78497,280.67357,52.33313,12.1788
25/10/2018 17:30,743.88267,280.71044,52.25058,12.15604
25/10/2018 17:31,742.63985,280.24145,52.20682,12.14141
25/10/2018 17:32,743.71713,280.64797,52.15735,12.13237
25/10/2018 17:33,744.14912,280.81099,52.13325,12.11821
25/10/2018 17:34,743.0757,280.40593,52.10197,12.10487
25/10/2018 17:35,742.34013,280.12835,52.02789,12.09201
25/10/2018 17:36,738.47659,278.67041,51.9383,12.06921
25/10/2018 17:37,733.11748,276.64811,51.73207,12.03368
25/10/2018 17:38,729.2671,275.19513,51.61687,12.01647
25/10/2018 17:39,724.89528,273.54539,51.30918,11.9686
25/10/2018 17:40,719.34242,271.44997,51.0756,11.93072